Location: Platte
(43.3870°N, 98.8440°W)
Time: 05:38:10
(UTC-05:00)

H-2A R/B - Pass Details

Date: 21 May 2018
Orbit: 735 x 836 km, 98.3° (Epoch: 18 June)

Event Time Altitude Azimuth Distance (km) Brightness Sun altitude
Exits shadow 23:24:49 14° 212° (SSW) 1,982 3.9 -19.9°
Maximum altitude 23:28:14 28° 265° (W) 1,364 3.5 -20.2°
Drops below altitude 10° 23:32:32 10° 325° (NW) 2,282 5.6 -20.6°
Sets 23:35:10 0° 336° (NNW) 3,226 6.8 -20.8°
